STARLETTE 1 07646U 75010A 26195.20099625 -.00000145 00000+0 -10461-5 0 9990 2 07646 49.8252 357.9631 0205690 152.3136 208.8887 13.82350656598273 LAGEOS 1 1 08820U 76039A 26195.17355440 .00000007 00000+0 00000+0 0 9990 2 08820 109.8044 188.5692 0044664 296.4751 82.8464 6.38664673914862 AJISAI (EGS) 1 16908U 86061A 26195.20516296 -.00000111 00000+0 -93245-4 0 9990 2 16908 50.0105 64.3158 0011092 249.3523 208.2393 12.44516665483759 COSMOS 1989 (ETALON 1) 1 19751U 89001C 26194.26661691 -.00000012 00000+0 00000+0 0 9992 2 19751 64.9606 71.3039 0023317 217.5002 319.7229 2.13155942291920 COSMOS 2024 (ETALON 2) 1 20026U 89039C 26193.96615262 -.00000059 00000+0 00000+0 0 9990 2 20026 64.9174 309.6477 0020771 212.3333 256.4275 2.13204491289054 LAGEOS 2 1 22195U 92070B 26184.51681220 -.00000009 00000+0 00000+0 0 9991 2 22195 52.6512 256.3450 0137928 194.4919 154.2742 6.47293802796473 STELLA 1 22824U 93061B 26195.18420272 -.00000031 00000+0 56046-5 0 9996 2 22824 98.7712 259.5317 0006880 149.9808 303.0694 14.27471153708620 LARETS 1 27944U 03042F 26195.18303292 -.00000010 00000+0 78018-5 0 9996 2 27944 98.4180 357.9576 0011357 316.4942 43.5363 14.63873072217315 LARES 1 38077U 12006A 26195.15116682 -.00000034 00000+0 28933-4 0 9993 2 38077 69.4885 246.1903 0008536 359.8813 0.2210 12.54932284660457 LARES-2 1 53105U 22080A 26192.27283510 -.00000016 00000+0 00000+0 0 9990 2 53105 70.1562 297.0691 0005170 331.4390 28.5953 6.38965058 93203